Regional Weather Roundup
Issued by NWS

Home | Current Version | Previous Version | Text Only | Print | Product List | Glossary Off
Versions: 1 2 3 4 5 6 7 8 9 10 11 12 13 14 15 16 17 18 19 20 21 22 23 24 25 26 27 28 29 30 31 32 33 34 35 36 37 38 39 40 41 42 43 44 45 46 47 48 49 50

782
ASUS44 KLIX 230710
RWRLA
LOUISIANA WEATHER ROUNDUP
NATIONAL WEATHER SERVICE NEW ORLEANS LA
100 AM CST SUN NOV 23 2014

NOTE: "FAIR" INDICATES FEW OR NO CLOUDS BELOW 12,000 FEET WITH NO
      SIGNIFICANT WEATHER AND/OR OBSTRUCTIONS TO VISIBILITY.
      SKY/WX - SKY CONDITION AND SIGNIFICANT WEATHER.
      TMP - AIR TEMPERATURE.    DP   - DEWPOINT TEMPERATURE.
      RH  - RELATIVE HUMIDITY.  PRES - PRESSURE.
      HX  - HEAT INDEX.         WCI  - WIND CHILL INDEX.

*  THESE STATIONS ARE NOT NWS OR FAA STATIONS AND ARE NOT UNDER
   NWS QUALITY CONTROL.

LAZ040-048-061>063-065-066-069-230800-
SOUTHEAST LOUISIANA

CITY           SKY/WX    TMP DP  RH WIND       PRES   REMARKS
N.O. AUDUBON     N/A     61  61 100 MISG        N/A
N.O. INTL ARPT CLOUDY    63  61  93 E7        29.86R
N.O. LAKEFRONT CLOUDY    62  59  90 E16       29.86F
N.O. DOWNTOWN* CLOUDY    61  55  82 CALM      29.87S
SLIDELL        CLOUDY    64  60  87 SE10      29.87F
BATON ROUGE    CLOUDY    63  61  93 E10       29.84F
BOOTHVILLE     CLOUDY    65  65 100 E8        29.85F
BELLE CHASSE   CLOUDY    62  59  90 NE12      29.85S
BOGALUSA*        N/A     64  59  83 E5        29.89F
NEW ROADS*     CLOUDY    64  62  91 SE9       29.84F
GONZALES*      CLOUDY    63  63 100 E5        29.84F
HAMMOND*       CLOUDY    64  61  88 E9        29.88R
HOUMA*         LGT RAIN  64  64  97 NE9       29.84F
PORT FOURCHON* PTSUNNY   68  66  94 SE14      29.86S

$$

LAZ041-044-053-054-230800-
SOUTHWEST LOUISIANA

CITY           SKY/WX    TMP DP  RH WIND       PRES   REMARKS
LAKE CHARLES   HVY RAIN  65  64  97 SE13      29.74F FOG
LAFAYETTE      CLOUDY    65  63  93 SE6       29.80F
PATTERSON      CLOUDY    66  63  88 E10       29.82F
SALT POINT       N/A     69  65  86 E8        29.78F
NEW IBERIA     CLOUDY    67  64  90 E10       29.80F
CHENAULT AIRPK RAIN      65  64  99 E14       29.75F

$$

LAZ027-028-230800-
CENTRAL LOUISIANA

CITY           SKY/WX    TMP DP  RH WIND       PRES   REMARKS
FORT POLK      LGT RAIN  64  62  95 SE13      29.76R
ALEXANDRIA INT LGT RAIN  63  61  93 SE16G25   29.76F
ALEXANDRIA     LGT RAIN  64  61  90 SE9       29.78F

$$

LAZ001-002-230800-
NORTHWEST LOUISIANA

CITY           SKY/WX    TMP DP  RH WIND       PRES   REMARKS
SHREVEPORT     LGT RAIN  62  61  96 SE6       29.73F FOG
BARKSDALE AFB  LGT RAIN  61  61 100 SE8       29.74F FOG
DTN SHREVEPORT LGT RAIN  61  59  93 VRB3      29.74F FOG

$$

LAZ014-016-230800-
NORTHEAST LOUISIANA

CITY           SKY/WX    TMP DP  RH WIND       PRES   REMARKS
MONROE         CLOUDY    60  56  86 SE6       29.81F
TALLULAH       CLOUDY    62  57  83 SE18      29.84F

$$




USA.gov is the U.S. government's official web portal to all federal, state and local government web resources and services.